Flag for U.S.A. Weather past 2 weeks in Myrtle Beach, South Carolina, U.S.A.

Now
82 °F

Scattered clouds.


Feels Like: 87 °F
Forecast: 75 / 87 °F
Wind: 7 mph from Southeast

Location: Myrtle Beach Air Force Base

Current Time: Jul 27, 2015 at 9:40:18 PM

Latest Report: Jul 27, 2015 at 8:45 PM


Visibility: 10 mi

Pressure: 29.99 "Hg

Humidity: 70%

Dew point: 72 °F

Location of Myrtle BeachLocation

Historic Weather in Myrtle Beach — Graph

°F

Myrtle Beach temperature yesterday

Maximum temperature yesterday: 88 °F (at 11:45 AM)
Minimum temperature yesterday: 73 °F (at 1:55 AM)
Average temperature yesterday: 79 °F

Past Weeks' High & Low Weather Summary

 TemperatureHumidityPressure
High99 °F (Jul 21, 2:45 PM)89% (Jul 18, 1:55 AM)30.08 "Hg (Jul 18, 1:55 AM)
Low72 °F (Jul 25, 6:45 AM)43% (Jul 25, 12:45 PM)29.72 "Hg (Jul 14, 6:45 PM)
Average82 °F73%29.92 "Hg
* Reported Jul 12 7:45 PM — Jul 27 7:45 PM, Myrtle Beach, Weather by CustomWeather, © 2015

Note: Actual official high and low records may vary slightly from our data, if they occured in-between our weather recording intervals... More about our weather records

Advertising

Myrtle Beach weather history for previous 24 hours

 ConditionsComfort  
Time TempWeatherWind HumidityBarometerVisibility
7:45 PM
Mon, Jul 27
84 °FScattered clouds.10 mph70%29.98 "Hg10 mi
6:50 PM84 °FScattered clouds.12 mph74%29.98 "Hg10 mi
5:45 PM88 °FScattered clouds.12 mph62%29.97 "Hg10 mi
4:45 PM88 °FScattered clouds.12 mph62%29.98 "Hg10 mi
3:45 PM88 °FScattered clouds.17 mph66%29.98 "Hg10 mi
2:45 PM88 °FSmoke.7 mph66%30.00 "HgN/A
1:45 PM88 °FScattered clouds.9 mph66%29.99 "Hg10 mi
11:45 AM90 °FBroken clouds.13 mph63%30.02 "Hg10 mi
10:45 AM88 °FScattered clouds.9 mph66%30.02 "Hg10 mi
9:45 AM86 °FBroken clouds.7 mph66%30.01 "Hg10 mi
8:45 AM82 °FScattered clouds.7 mph74%30.00 "Hg10 mi
6:45 AM77 °FPassing clouds.8 mph79%29.98 "Hg10 mi
5:55 AM75 °FClear.6 mph83%29.97 "Hg10 mi
5:35 AM75 °FClear.5 mph83%29.96 "Hg10 mi
5:15 AM75 °FClear.5 mph83%29.96 "Hg10 mi
4:55 AM75 °FClear.5 mph83%29.96 "Hg10 mi
4:35 AM75 °FClear.6 mph83%29.96 "Hg10 mi
4:15 AM75 °FPassing clouds.7 mph83%29.97 "Hg10 mi
3:55 AM75 °FClear.6 mph89%29.97 "Hg10 mi
3:35 AM77 °FPassing clouds.5 mph83%29.97 "Hg10 mi
3:15 AM77 °FPassing clouds.3 mph83%29.96 "Hg10 mi
2:55 AM77 °FMostly cloudy.5 mph79%29.97 "Hg10 mi
2:35 AM77 °FPassing clouds.6 mph83%29.97 "Hg10 mi
2:15 AM77 °FPartly cloudy.6 mph83%29.98 "Hg10 mi
1:55 AM77 °FPartly cloudy.6 mph83%29.98 "Hg10 mi
1:35 AM79 °FPartly cloudy.8 mph79%29.98 "Hg10 mi
1:15 AM79 °FPartly cloudy.6 mph84%29.99 "Hg10 mi
12:55 AM79 °FPassing clouds.6 mph84%29.99 "Hg10 mi
12:35 AM81 °FPassing clouds.7 mph79%29.98 "Hg10 mi
11:55 PM
Sun, Jul 26
81 °FPassing clouds.9 mph79%29.99 "Hg10 mi
11:35 PM81 °FPassing clouds.7 mph79%29.99 "Hg10 mi
11:15 PM81 °FPassing clouds.7 mph74%30.00 "Hg10 mi
10:55 PM81 °FPassing clouds.7 mph74%30.00 "Hg10 mi
9:45 PM81 °FPassing clouds.7 mph74%29.99 "Hg10 mi
Weather by CustomWeather, © 2015

See weather overviewHow to use our weather pages